Location: Amberg
(48.0613°N, 10.6820°E)
Time: 21:45:08
(UTC+00:00)

Cosmos 2278 Rocket - Pass Details

Date: 18 November 2025
Orbit: 841 x 843 km, 71.0° (Epoch: 10 December)

Event Time Altitude Azimuth Distance (km) Brightness Sun altitude
Rises 17:35:46 0° 221° (SW) 3,386 6.1 -19.8°
Reaches altitude 10° 17:38:16 10° 226° (SW) 2,455 5.3 -20.2°
Maximum altitude 17:43:47 54° 303° (WNW) 1,018 2.8 -21.1°
Enters shadow 17:48:36 14° 19° (NNE) 2,206 4.1 -21.9°
